Vorticity
5 3 4 6 5 4 3 2 3 2 2 2 3 4 4 6 8 1 5 16 4 4 7 9 -4 -9 6 18 3 3 4 2 4 2 5 6 9 21 20 10 6 7 1 3 6
21 13 1 5 4 4 4 3 1 4 4 2 3 4 4 2 6 4 8 20 0 1 12 6 6 10 2 35 -3 -6 1 3 2 5 5 5 2 25 21 26 2 15 3 2 5
21 18 23 0 2 6 4 5 2 4 3 4 3 4 6 3 5 8 6 22 3 1 4 9 8 7 1 14 4 -16 3 1 4 4 3 12 2 14 20 16 10 7 3 7 5
-1 18 24 22 6 5 5 7 4 3 4 5 3 5 7 4 5 8 8 19 3 6 -1 2 5 11 8 7 14 3 3 2 5 1 8 15 5 9 16 7 4 4 6 4 3
1 2 3 33 18 5 6 6 9 5 5 3 4 4 7 5 7 7 9 12 -1 8 5 5 5 7 -2 9 6 5 5 5 7 5 7 10 5 12 11 9 6 4 5 5 6
6 4 5 9 27 16 4 5 8 8 6 3 5 5 4 10 6 9 8 10 3 7 2 1 5 1 1 3 6 7 7 8 8 6 10 4 9 9 5 4 4 4 4 5 6
4 5 4 5 6 28 14 10 7 8 8 6 4 5 4 11 5 10 6 8 0 7 -1 4 4 1 3 6 8 8 12 7 6 6 10 14 7 6 6 3 3 5 5 4 3
5 4 4 4 4 12 28 3 9 9 5 4 6 6 3 9 8 10 6 5 9 4 3 6 5 1 5 10 2 5 3 6 5 9 15 7 6 5 4 6 4 4 5 1 2
3 5 3 6 5 3 11 40 6 10 9 2 5 4 7 4 10 8 13 1 6 6 3 3 1 2 7 7 -0 -0 5 3 3 9 11 6 5 4 3 3 3 1 3 4 4
5 4 5 4 6 6 5 7 28 6 7 7 2 7 7 5 6 12 7 10 3 7 7 4 4 3 3 4 5 3 0 6 8 16 6 6 5 4 4 2 3 3 3 4 8
7 5 4 4 4 7 8 2 8 14 2 5 6 3 8 5 5 7 16 12 5 7 4 5 9 4 3 6 4 2 6 9 8 16 4 7 4 2 3 3 6 4 5 9 6
5 7 5 5 3 4 5 4 6 18 9 2 6 6 4 5 7 4 8 16 8 10 7 9 8 7 0 6 9 7 9 7 17 8 3 6 3 2 3 5 3 4 5 5 7
8 6 7 4 5 4 5 5 6 9 13 16 -6 8 5 3 10 8 3 13 16 6 3 4 5 6 5 6 9 9 6 8 15 4 5 5 5 5 5 7 5 6 5 8 6
3 7 6 7 3 5 6 7 9 3 16 13 24 -4 6 9 -3 9 12 7 13 16 6 1 4 7 6 6 3 11 6 12 9 5 4 5 5 4 6 6 5 4 4 7 9
8 4 6 7 6 4 4 7 7 6 5 7 10 18 1 4 14 18 -4 9 13 17 14 9 5 6 7 5 3 10 6 15 8 3 5 9 4 10 6 5 3 2 6 6 8
4 5 4 6 6 5 5 7 8 8 6 5 13 10 26 -2 12 12 -6 12 8 13 11 8 7 1 6 4 4 6 9 16 8 5 6 6 6 12 3 7 5 4 5 8 5
10 6 3 6 7 7 5 4 8 4 8 5 2 6 24 13 10 7 13 -4 12 14 14 10 6 3 7 7 5 5 5 15 7 4 10 6 7 -6 4 2 3 4 3 6 9
10 12 5 4 5 6 6 5 5 3 6 5 4 13 16 19 6 12 -1 14 -5 10 10 14 13 8 7 8 7 7 5 12 9 4 0 3 4 4 2 7 7 7 8 9 7
0 10 11 2 8 10 6 4 3 6 7 5 7 4 23 3 23 6 10 10 -4 -3 8 11 13 13 9 5 5 5 8 7 10 5 4 2 7 5 3 5 8 8 6 5 5
10 5 12 10 4 0 10 8 4 7 7 7 9 10 2 16 7 6 8 7 22 -8 8 9 9 13 11 10 6 7 6 8 7 7 5 4 4 6 5 2 4 4 1 5 2
10 9 13 9 9 -8 23 17 8 10 9 4 6 9 14 -0 3 6 5 4 14 13 -4 8 6 4 13 10 9 9 8 8 8 7 6 5 4 5 5 6 5 3 2 1 4
14 9 10 10 7 -17 -9 -6 5 10 10 5 5 9 15 13 12 10 11 11 14 30 11 9 9 6 6 8 9 8 9 9 6 6 5 2 4 6 5 3 3 4 5 5 6
14 15 11 11 8 12 17 16 18 7 4 7 5 7 8 12 12 9 7 6 28 10 27 -4 10 10 4 5 3 6 6 5 3 1 2 1 6 7 7 8 7 5 4 9 9
21 17 10 9 7 20 -9 -4 33 6 12 2 5 5 4 8 12 10 10 5 28 5 19 18 6 12 11 9 2 -0 -1 3 3 2 4 6 4 9 4 -1 3 14 14 16 14
20 31 15 11 8 14 -9 -13 0 7 9 8 3 4 2 2 11 12 10 6 11 31 -10 -6 6 7 0 5 15 18 17 14 13 10 1 13 3 -1 -4 7 -1 14 16 2 -1
8 25 29 18 13 -13 22 -3 -29 12 23 10 7 7 5 4 10 9 6 6 3 9 30 22 13 24 12 10 -7 -21 -25 -15 -23 -19 -6 -13 -3 12 25 27 3 12 21 29 31
7 18 30 21 13 11 -17 26 21 -14 -6 14 6 6 7 4 6 8 8 6 7 0 19 8 13 8 3 -0 4 15 18 19 20 20 15 11 5 9 14 18 13 10 6 0 7
Height
5850 5853 5855 5858 5860 5861 5863 5865 5867 5866 5865 5864 5863 5863 5861 5860 5858 5859 5861 5861 5863 5864 5866 5868 5867 5865 5866 5866 5865 5865 5865 5865 5868 5867 5868 5867 5866 5865 5864 5866 5870 5870 5872 5873 5872
5845 5847 5850 5853 5855 5857 5859 5861 5863 5864 5863 5862 5862 5862 5861 5860 5860 5860 5861 5862 5864 5866 5867 5868 5868 5866 5866 5865 5867 5867 5868 5868 5868 5868 5868 5867 5866 5864 5863 5865 5870 5872 5871 5871 5872
5839 5841 5844 5847 5850 5852 5855 5857 5860 5862 5861 5860 5860 5861 5862 5860 5861 5861 5861 5862 5864 5865 5868 5869 5868 5866 5866 5867 5868 5868 5868 5867 5868 5869 5868 5868 5867 5866 5865 5867 5869 5871 5871 5873 5874
5837 5837 5839 5842 5845 5846 5849 5853 5856 5858 5858 5858 5857 5860 5861 5861 5863 5861 5861 5862 5864 5865 5866 5868 5868 5868 5868 5870 5871 5871 5870 5870 5871 5869 5869 5870 5870 5871 5870 5870 5872 5873 5874 5873 5875
5833 5835 5836 5837 5839 5842 5844 5848 5851 5854 5856 5855 5854 5857 5859 5860 5862 5861 5861 5861 5863 5864 5863 5864 5867 5867 5867 5869 5870 5870 5871 5872 5872 5871 5869 5872 5871 5872 5872 5872 5873 5873 5874 5875 5878
5829 5831 5833 5834 5835 5837 5839 5842 5847 5849 5852 5853 5851 5854 5857 5858 5860 5860 5860 5860 5862 5862 5862 5862 5864 5867 5867 5868 5869 5870 5872 5872 5873 5872 5872 5873 5873 5874 5874 5875 5875 5876 5876 5877 5877
5825 5827 5829 5830 5832 5833 5835 5837 5841 5845 5848 5849 5848 5850 5853 5857 5857 5858 5859 5859 5860 5861 5862 5862 5863 5866 5868 5869 5869 5871 5873 5873 5873 5871 5872 5873 5873 5874 5875 5876 5876 5877 5877 5877 5877
5821 5822 5824 5827 5829 5830 5832 5833 5835 5839 5844 5845 5845 5847 5850 5851 5854 5856 5858 5857 5859 5860 5861 5863 5863 5864 5867 5869 5870 5870 5872 5872 5873 5873 5872 5873 5874 5875 5876 5877 5877 5877 5877 5877 5878
5815 5817 5819 5822 5825 5827 5828 5829 5831 5834 5837 5841 5842 5843 5846 5848 5850 5853 5856 5856 5856 5858 5860 5861 5862 5863 5865 5867 5869 5869 5870 5871 5872 5873 5873 5874 5874 5875 5876 5876 5877 5876 5875 5875 5876
5809 5812 5815 5818 5820 5823 5825 5826 5828 5829 5832 5835 5838 5842 5843 5846 5847 5849 5852 5854 5854 5856 5859 5861 5861 5862 5863 5866 5868 5868 5869 5870 5870 5871 5871 5873 5874 5875 5876 5876 5876 5875 5875 5874 5875
5803 5806 5809 5812 5815 5818 5821 5822 5825 5827 5829 5831 5834 5837 5839 5841 5844 5845 5847 5850 5852 5854 5857 5858 5860 5860 5862 5864 5866 5867 5867 5869 5869 5869 5870 5870 5872 5874 5875 5875 5875 5875 5874 5874 5874
5795 5799 5803 5807 5809 5813 5816 5818 5820 5823 5824 5826 5828 5831 5834 5837 5840 5842 5844 5848 5850 5852 5854 5856 5856 5858 5861 5862 5864 5865 5866 5867 5867 5867 5868 5869 5869 5870 5873 5873 5873 5873 5873 5872 5872
5787 5792 5795 5800 5803 5807 5810 5813 5815 5816 5819 5822 5823 5826 5830 5833 5835 5838 5841 5843 5847 5849 5851 5853 5855 5855 5857 5859 5862 5862 5862 5864 5866 5866 5866 5868 5869 5869 5870 5871 5871 5871 5870 5870 5870
5779 5784 5789 5793 5799 5801 5804 5807 5810 5812 5814 5818 5818 5821 5825 5827 5831 5834 5836 5839 5843 5846 5848 5851 5853 5853 5854 5855 5858 5859 5859 5860 5862 5864 5866 5867 5868 5868 5869 5868 5868 5868 5867 5866 5866
5770 5775 5781 5786 5790 5795 5799 5802 5805 5807 5808 5812 5814 5818 5820 5823 5828 5829 5832 5834 5837 5841 5845 5849 5850 5851 5851 5852 5854 5857 5858 5858 5858 5860 5864 5866 5867 5867 5867 5866 5866 5865 5865 5863 5861
5760 5766 5772 5778 5783 5788 5792 5796 5799 5802 5803 5807 5810 5812 5815 5819 5822 5824 5828 5831 5833 5835 5839 5843 5846 5848 5849 5848 5850 5852 5855 5855 5855 5858 5862 5862 5864 5867 5863 5863 5863 5862 5860 5859 5856
5749 5758 5763 5770 5775 5780 5784 5789 5793 5793 5802 5805 5806 5808 5810 5813 5817 5819 5822 5826 5829 5832 5834 5838 5842 5845 5846 5847 5847 5848 5850 5851 5853 5854 5858 5859 5861 5863 5861 5859 5858 5856 5855 5853 5851
5739 5747 5754 5761 5765 5771 5776 5782 5786 5790 5797 5800 5802 5803 5806 5808 5812 5815 5817 5820 5824 5828 5830 5833 5835 5839 5842 5843 5844 5843 5845 5847 5847 5849 5852 5854 5857 5856 5854 5854 5852 5852 5850 5848 5846
5728 5734 5744 5750 5756 5761 5768 5773 5779 5786 5792 5796 5797 5799 5802 5804 5808 5811 5813 5815 5819 5822 5825 5827 5830 5833 5835 5837 5839 5841 5841 5842 5842 5844 5845 5848 5851 5851 5849 5847 5846 5845 5843 5842 5840
5712 5723 5734 5739 5747 5752 5757 5767 5772 5779 5786 5790 5792 5795 5797 5800 5804 5806 5807 5812 5813 5815 5819 5822 5825 5828 5829 5831 5833 5835 5838 5838 5838 5838 5839 5841 5844 5845 5845 5842 5839 5836 5835 5833 5831
5696 5708 5720 5727 5737 5744 5747 5758 5765 5772 5780 5783 5786 5788 5792 5795 5797 5799 5802 5805 5806 5808 5813 5816 5819 5823 5824 5826 5827 5829 5831 5832 5832 5833 5833 5833 5836 5839 5837 5835 5832 5828 5827 5824 5823
5679 5693 5705 5713 5722 5731 5739 5747 5757 5763 5771 5776 5781 5784 5786 5788 5791 5793 5796 5798 5800 5802 5806 5809 5811 5815 5818 5819 5820 5822 5825 5826 5825 5827 5825 5825 5829 5831 5828 5824 5821 5818 5816 5815 5814
5661 5677 5687 5697 5706 5724 5732 5739 5747 5754 5763 5770 5775 5778 5781 5784 5786 5788 5790 5792 5792 5795 5798 5802 5805 5808 5810 5815 5814 5816 5819 5819 5818 5817 5818 5816 5821 5819 5819 5813 5809 5808 5808 5805 5803
5644 5657 5669 5682 5698 5714 5720 5732 5738 5745 5753 5761 5767 5772 5776 5778 5780 5783 5786 5787 5787 5789 5792 5794 5798 5801 5804 5806 5808 5810 5812 5812 5811 5811 5812 5813 5809 5811 5805 5800 5800 5799 5795 5792 5788
5629 5642 5654 5672 5688 5704 5708 5720 5728 5737 5744 5752 5759 5765 5770 5773 5776 5779 5781 5781 5782 5784 5786 5788 5791 5794 5797 5799 5801 5804 5804 5804 5805 5804 5801 5806 5799 5801 5795 5793 5790 5787 5784 5781 5778
5618 5629 5641 5660 5674 5687 5693 5706 5722 5730 5737 5745 5754 5760 5764 5769 5772 5774 5774 5776 5777 5780 5781 5783 5787 5788 5790 5792 5794 5795 5798 5798 5797 5795 5793 5791 5793 5787 5785 5782 5780 5777 5774 5770 5767
5609 5620 5629 5645 5659 5669 5687 5702 5717 5724 5729 5737 5746 5750 5756 5762 5764 5768 5769 5771 5773 5776 5778 5779 5780 5781 5784 5784 5784 5789 5789 5786 5786 5786 5784 5783 5780 5777 5776 5772 5770 5767 5763 5760 5756